{"data":{"norad_id":62459,"epoch":"2026-09-22T22:07:27.234336Z","epoch_age_seconds":105885,"freshness":"FRESH","line1":"1 62459U 24253A   26265.92184299  .00265807  38713-4  65293-3 0  9999","line2":"2 62459  54.9904 239.7753 0007896  74.3021 285.8903 15.95623271 97981","mean_motion":15.95623271,"eccentricity":0.0007896,"inclination_deg":54.9904,"raan_deg":239.7753,"arg_perigee_deg":74.3021,"mean_anomaly_deg":285.8903,"bstar":0.00065293,"rev_number":9798,"period_min":90.246866298054,"perigee_km":281.31581194645,"apogee_km":291.84073030261,"semimajor_km":6664.7152711245,"source":"CELESTRAK","updated_at":"2026-09-23T09:00:21.435211Z"}}